Weather in Phoenix

United States     33°34′11″N   112°03′52″W
temp.,
°C
wind,
m/s
gust,
m/s
humid.,
%
clouds,
%
prec.,
mm/h
press.,
hPa
HPBL,
m
23 may, mon
mon2323:00+29wsw58112 0.0 1009453
02:00+27wsw241036 0.0 1009306
05:00+25sw011259 0.0 1010208
08:00+26e22135 0.0 1011686
11:00+29sw23125 0.0 10091456
14:00+33w561093 0.0 10062567
17:00+34w679100 0.0 10042995
20:00+32wsw671189 0.0 10031108
24 may, tue
tue2423:00+28wsw6111698 0.0 1005556
02:00+27w3516100 0.0 1006440
05:00+26sw111724 0.0 1007261
08:00+26se11175 0.0 1008613
11:00+30s22130 0.0 10081139
14:00+35w5694 0.0 10042443
17:00+36wsw811100 0.0 10023694
20:00+34wsw811110 0.0 10021193
25 may, wed
wed2523:00+30wsw1011195 0.0 1005632
02:00+28w472366 0.0 1006351
05:00+26e12235 0.0 1008242
08:00+27e33173 0.0 1010463
11:00+31se23141 0.0 10101015
14:00+35w1290 0.0 10071489
17:00+37nw3480 0.0 10051704
20:00+36wsw4580 0.0 10051284
26 may, thu
thu2623:00+32w511140 0.0 1008622
02:00+30wnw24170 0.0 1008298
05:00+28sw11190 0.0 100988
08:00+30sse11185 0.0 1011490
11:00+33sw12145 0.0 10111034
14:00+37wnw23115 0.0 10081722
17:00+39w4490 0.0 10053142
20:00+37w77110 0.0 10061303
27 may, fri
fri2723:00+32w610130 0.0 1009558
02:00+30w12160 0.0 1009343
05:00+29ssw11183 0.0 1010220
08:00+30ese221742 0.0 1011687
11:00+33s231391 0.0 10101254
14:00+37wnw24941 0.0 10082164
17:00+39w467100 0.0 10053171
20:00+36wsw7810100 0.0 10051630